Regional Weather Roundup
Issued by NWS

Home | Current Version | Previous Version | Graphics & Text | Print | Product List | Glossary On
Versions: 1 2 3 4 5 6 7 8 9 10 11 12 13 14 15 16 17 18 19 20 21 22 23 24 25 26 27 28 29 30 31 32 33 34 35 36 37 38 39 40 41 42 43 44 45 46 47 48 49 50
000
ASUS43 KLMK 301610
RWRKY
KENTUCKY REGIONAL WEATHER ROUNDUP
NATIONAL WEATHER SERVICE LOUISVILLE KY
1200 PM EDT SAT AUG 30 2014

NOTE "FAIR" INDICATES FEW OR NO CLOUDS BELOW 12,000 FEET
WITH NO SIGNIFICANT WEATHER AND/OR OBSTRUCTIONS TO VISIBILITY.

KYZ001>023-026-027-061>063-070>075-301700-
WESTERN AND SOUTH CENTRAL KENTUCKY

CITY           SKY/WX    TMP DP  RH WIND       PRES   REMARKS
PADUCAH        CLOUDY    79  73  82 CALM      30.03R
HENDERSON      CLOUDY    77  70  78 CALM      30.04S
OWENSBORO      MOSUNNY   81  70  69 SW6       30.05R
HOPKINSVILLE   CLOUDY    81  72  74 SW9       30.07R
BOWLING GREEN  CLOUDY    84  68  58 S9        30.07S
GLASGOW        PTSUNNY   83  67  58 S8        30.09S
$$

KYZ024-025-028>034-038-045-046-053-301700-
NORTH CENTRAL KENTUCKY

CITY           SKY/WX    TMP DP  RH WIND       PRES   REMARKS
LOUISVILLE/SDF CLOUDY    83  68  60 CALM      30.06S
LOUISVILLE/LOU PTSUNNY   81  67  62 S5        30.07S
FORT KNOX      PTSUNNY   82  71  70 S6        30.06S
$$

KYZ035>037-039>044-047>052-055>060-089>105-301700-
NORTHEAST KENTUCKY

CITY           SKY/WX    TMP DP  RH WIND       PRES   REMARKS
LEXINGTON      MOSUNNY   86  67  52 S13       30.11R
COVINGTON      CLOUDY    83  65  54 VRB7      30.08R
FRANKFORT      CLOUDY    84  67  56 S12       30.08S
$$

KYZ054-064>069-076>088-106>120-301700-
SOUTHEAST KENTUCKY

CITY           SKY/WX    TMP DP  RH WIND       PRES   REMARKS
JACKSON        MOSUNNY   84  68  58 VRB3      30.15F
LONDON         MOSUNNY   86  66  51 S9        30.15S
SOMERSET       SUNNY     82  64  54 S7        30.14S
MIDDLESBORO    MOSUNNY   85  68  56 SE3       30.17S
MONTICELLO     MOSUNNY   84  69  60 S7        30.14S
$$



USA.gov is the U.S. government's official web portal to all federal, state and local government web resources and services.